Domov               UVHVVR             MKGP            O straneh              
ZDRAVSTVENO VARSTVO RASTLIN
  MREŽA AGROMET. POSTAJ
 ► PROGNOSTIČNA OBVESTILA
AGROMETEOROLOŠKI PODATKI -
ARSO
OBVLADOVANJE TVEGANJ ZARADI
NEUGODNIH VREMENSKIH RAZMER
  ► NARAVNE NESREČE
  ► SUŠA/MOČA
  ► NAMAKANJE
  ► ŽLED (gozdarstvo)
KARTOGRAFSKI PRIKAZI
SPLETNE POVEZAVE
PROJEKTI IN PUBLIKACIJE

AGROMETEOROLOŠKA MREŽA: VREMENSKE POSTAJE IN FENOLOŠKA OPAZOVANJA

Pregled podatkov za lokacijo Slom, meteorološka postaja 42786

Pregled senzorjev na lokaciji

ID Ime Zadnja
vrednost
Datum
zadnje
spremembe
Tip
senzorja
2126 Temperatura 2 m (°C) 13,11 °C 11.12.2017 21:00 50YA
2127 Relativna vlaga 2 m (% RH) 62,13 % RH 11.12.2017 21:00 50YA
2128 Omočenost lista (U) 0 U 11.12.2017 21:00 A730WET
2129 Padavine (mm) 0 mm 11.12.2017 21:00 Rain-O-Matic

Pregled podatkov zadnjih 24 ur

Zap.
št.
Datum in čas Slom
Omočenost
lista
Padavine Relativna
vlaga
2
m
Temperatura
2
m
0 11.12.2017 21:00 0 0 62,13 13,11
1 11.12.2017 20:30 0 0 62,41 12,86
2 11.12.2017 20:00 0 0 61,26 13,17
3 11.12.2017 19:30 0 0 63,83 12,58
4 11.12.2017 19:00 0 0 65,1 12,23
5 11.12.2017 18:30 0 0 63,13 13,03
6 11.12.2017 18:00 0 0 64,36 12,97
7 11.12.2017 17:30 0 0 64,55 12,98
8 11.12.2017 17:00 0 0 65,42 12,71
9 11.12.2017 16:30 0 0,6 67,06 12,38
10 11.12.2017 16:00 0 2,2 69,55 11,95
11 11.12.2017 15:30 0 2,6 76,35 10,67
12 11.12.2017 15:00 0 2 81,85 9,32
13 11.12.2017 14:30 0 1,4 90,35 6,97
14 11.12.2017 14:00 0 1 90,7 5,83
15 11.12.2017 13:30 0 1 94,78 5,74
16 11.12.2017 13:00 0 0,6 99,32 2,68
17 11.12.2017 12:30 0 0,6 99,83 1,79
18 11.12.2017 12:00 0 0,4 100 1,59
19 11.12.2017 11:30 0 0,4 100 1,16
20 11.12.2017 11:00 0 0,4 100 0,99
21 11.12.2017 10:30 0 0,2 100 0,98
22 11.12.2017 10:00 1 0,4 100 0,92
23 11.12.2017 09:30 2 0,2 100 0,86
24 11.12.2017 09:00 4 0,2 100 0,81
25 11.12.2017 08:30 6 0,2 100 0,62
26 11.12.2017 08:00 8 0,2 100 0,58
27 11.12.2017 07:30 8 0 100 0,62
28 11.12.2017 07:00 8 0,2 100 0,54
29 11.12.2017 06:30 8 0,2 100 0,47
30 11.12.2017 06:00 7 0 100 0,44
31 11.12.2017 05:30 7 0,2 100 0,46
32 11.12.2017 05:00 8 0,2 100 0,58
33 11.12.2017 04:30 6 0,2 100 0,4
34 11.12.2017 04:00 9 0,2 100 0,41
35 11.12.2017 03:30 9 0,2 100 0,47
36 11.12.2017 03:00 5 0,2 100 0,35
37 11.12.2017 02:30 8 0,2 99,99 0,37
38 11.12.2017 02:00 10 0,2 99,97 0,72
39 11.12.2017 01:30 10 0,2 99,88 0,74
40 11.12.2017 01:00 10 0 99,57 0,66
41 11.12.2017 00:30 10 0,2 98,93 0,55
42 11.12.2017 00:00 10 0 97,98 0,71
43 10.12.2017 23:30 10 0,2 96,38 1,14
44 10.12.2017 23:00 10 0,4 94,35 1,53
45 10.12.2017 22:30 9 0,6 92,24 1,89
46 10.12.2017 22:00 4 0,4 91,3 1,9
© 2011 Ministrstvo za kmetijstvo, gozdarstvo in prehrano. Vse pravice pridržane.